SCP
-0 0 0 0 0 -0 -0 -0 -0 -0 -0 -0 -0 -0 -0 -0 -0 -0 -0 0 0 0 0 0 0 0 0 0 0 0 0 0 0 0 0 0 0 0 0 0 0 0 0
-0 -0 0 0 0 0 0 0 0 -0 -0 -0 -0 0 0 0 0 0 0 0 0 0 0 0 0 0 0 0 0 0 0 0 0 0 0 0 0 0 0 0 0 0 0
-0 -0 -0 0 0 -0 -0 -0 -0 0 0 0 0 0 0 0 0 0 0 0 0 0 0 0 0 0 0 0 0 0 0 0 0 0 0 0 0 0 0 0 0 0 0
-0 -0 -0 -0 -0 -0 -0 0 0 0 0 0 0 0 0 0 0 0 0 0 0 0 0 0 0 0 0 0 0 0 0 0 0 0 0 0 0 0 0 0 0 0 0
-0 -0 -0 -0 0 0 0 0 0 0 0 0 0 0 0 0 0 0 0 0 0 0 0 0 0 0 0 0 0 0 0 0 0 0 0 0 0 0 0 0 0 0 0
-0 -0 0 0 0 0 0 0 0 0 0 0 0 0 0 0 0 0 1 0 0 0 0 0 0 0 0 0 0 0 0 0 0 0 0 0 0 0 0 0 0 0 0
0 -0 0 0 0 0 0 0 0 0 0 0 0 0 0 0 0 0 0 0 0 0 0 0 0 0 0 0 0 0 0 0 0 0 0 0 0 0 0 0 0 0 1
0 -0 -0 0 0 0 0 0 0 0 0 0 0 0 0 0 0 0 0 0 0 0 0 0 0 0 0 0 0 0 1 0 0 0 0 0 0 0 0 0 0 0 1
0 0 -0 -0 0 0 0 0 0 0 0 0 0 0 0 0 0 0 0 0 0 0 0 0 0 0 0 0 0 0 0 0 0 0 0 0 0 1 1 1 0 0 0
0 0 0 0 0 0 0 0 0 0 0 0 0 0 0 0 0 0 0 0 0 0 0 0 0 0 0 0 0 0 0 0 0 0 0 0 1 1 1 1 1 1 0
0 0 0 0 0 0 0 0 0 0 0 0 0 0 0 0 0 0 0 0 0 0 0 0 0 0 0 0 0 0 0 0 0 0 0 0 0 0 1 1 1 1 0
0 0 0 0 0 0 0 0 0 0 0 0 0 0 0 0 0 0 0 0 0 0 0 0 0 0 0 -0 -0 0 0 0 0 0 0 0 0 0 0 0 0 1 1
0 0 0 0 0 0 0 0 0 0 0 0 0 0 0 0 0 0 0 -0 -0 0 0 0 0 0 0 0 0 0 0 0 0 0 0 0 0 0 0 0 0 0 1
0 0 0 0 0 0 0 0 0 0 0 0 0 0 0 0 0 0 0 -0 -0 -0 0 0 0 0 0 0 0 0 -0 -0 0 0 0 0 0 0 0 0 0 0 0
0 0 0 0 0 0 0 0 0 0 0 0 0 0 0 0 0 0 0 0 -0 0 0 0 0 0 0 0 0 0 0 0 0 0 0 0 0 0 0 0 0 0 0
0 0 0 0 0 0 0 0 0 0 0 0 0 0 0 0 0 0 0 0 0 0 0 0 0 0 0 0 0 0 0 0 0 0 0 0 0 0 0 0 0 0 0
0 0 0 0 0 0 0 0 0 0 0 0 0 0 0 0 0 0 0 0 0 0 0 0 0 0 0 0 0 0 0 0 0 0 0 0 0 0 0 0 0 0 0
0 0 0 0 0 0 0 0 0 0 0 0 0 0 0 0 0 0 0 0 0 0 0 0 0 0 0 0 0 0 0 0 0 0 0 0 0 0 0 0 0 0 0
0 0 0 0 0 0 0 0 0 0 0 0 0 0 0 0 0 0 0 -0 0 0 0 0 0 0 0 0 0 0 0 0 0 0 0 0 0 0 0 0 0 0 0
0 0 0 0 0 0 0 0 0 0 0 0 0 0 0 0 0 0 0 -0 0 0 0 0 0 0 0 0 0 0 0 0 0 0 0 0 0 0 0 0 0 0 0
0 0 0 0 0 0 0 0 0 0 0 0 0 0 0 0 0 0 0 0 0 -0 -0 -0 0 0 0 0 0 0 0 0 0 0 0 0 0 0 0 0 0 0 0
0 0 0 0 0 0 0 0 0 0 0 0 0 0 0 0 0 0 0 0 0 0 0 0 0 0 0 0 0 0 0 0 0 0 0 0 0 0 0 0 0 0 0
0 0 -0 -0 0 0 0 0 0 0 0 0 0 0 0 0 0 0 0 0 0 0 0 0 0 0 0 0 0 0 0 0 0 0 0 0 0 0 0 0 0 0 0
0 0 0 0 0 0 0 0 0 0 0 0 0 0 0 0 0 0 0 0 0 0 0 0 0 0 0 0 0 0 0 0 0 0 0 0 0 0 0 0 0 0 0
0 0 0 0 0 0 0 0 0 0 0 0 0 0 0 0 0 0 0 0 0 0 0 0 0 0 0 0 0 0 0 0 0 0 -0 -0 -0 0 0 0 0 0 0
0 0 0 0 0 0 0 0 0 0 0 0 0 0 0 0 0 0 0 0 0 0 0 0 0 0 0 0 0 0 0 0 0 0 0 -0 -0 0 0 0 0 0 0
Wind_Speed_500mb
27 25 22 18 21 24 25 26 27 28 26 26 25 24 23 21 19 18 17 15 12 10 7 4 2 2 4 5 6 6 9 11 12 12 10 9 9 7 5 3 2 5 8
33 31 26 23 23 27 29 27 28 28 28 28 29 28 26 24 22 22 20 18 16 13 10 8 7 8 10 12 13 14 15 15 14 13 12 12 11 11 11 10 9 9 13
32 33 29 25 25 28 31 31 31 31 32 32 33 32 31 30 28 27 26 24 22 19 18 16 14 12 13 15 17 19 20 21 21 20 19 18 17 15 15 14 17 21 19
33 31 30 28 29 29 31 33 33 33 33 32 32 31 30 29 26 26 25 24 22 20 18 18 18 19 19 20 20 21 22 24 25 26 26 25 26 24 23 26 25 30 30
37 32 30 29 30 31 31 31 32 32 31 29 29 28 27 26 24 25 26 24 21 20 20 21 21 20 21 21 23 25 27 27 28 27 26 27 30 32 32 36 37 32 35
37 32 30 28 29 30 30 29 28 28 27 27 26 26 25 23 21 21 16 17 20 20 19 17 17 18 19 21 22 25 28 30 33 33 32 30 29 31 36 39 42 36 32
38 34 32 28 27 29 29 28 28 28 27 25 25 26 22 24 24 19 20 20 21 22 22 25 26 26 27 28 30 32 33 33 35 36 37 39 36 33 34 38 42 42 39
32 33 32 30 28 32 34 32 34 33 30 25 24 24 23 22 22 20 23 26 28 31 32 33 34 32 31 32 32 33 33 35 38 38 39 41 40 40 38 39 42 47 47
35 34 33 34 36 39 39 34 32 29 25 23 23 21 19 19 21 24 27 30 32 33 35 36 37 39 39 38 38 37 37 35 34 35 37 39 36 37 39 41 43 49 53
44 43 43 43 41 36 34 30 26 24 24 23 21 20 19 20 23 25 28 31 33 34 37 40 40 42 42 42 45 48 47 44 44 42 40 37 35 36 40 43 41 42 54
49 44 42 39 36 32 25 21 17 15 18 17 17 19 19 19 25 31 35 37 37 37 39 41 42 45 47 47 45 44 45 48 48 47 47 44 44 42 40 42 45 46 50
54 48 42 39 35 28 21 15 11 9 11 14 19 23 26 27 31 36 39 42 44 44 47 48 49 51 51 53 52 50 48 46 47 50 52 51 50 50 50 47 44 48 49
55 50 45 41 34 25 20 12 5 7 9 14 20 27 30 31 36 42 44 48 51 54 56 58 58 56 53 53 54 54 55 56 53 50 50 51 52 57 59 58 53 49 49
57 53 52 44 34 28 19 12 7 5 2 8 16 23 25 32 39 42 48 54 56 58 65 66 67 69 67 62 62 65 69 71 64 61 59 54 53 54 59 65 65 60 58
60 58 56 48 43 34 27 22 17 12 4 4 8 18 29 36 42 46 52 51 49 55 53 55 59 64 70 74 76 78 78 69 62 62 63 59 57 54 56 62 70 72 70
65 63 58 51 45 39 34 26 19 15 6 8 17 28 38 42 44 49 46 45 53 61 58 57 60 69 77 80 79 69 59 55 60 71 67 62 59 55 58 60 62 67 78
70 69 61 53 44 35 25 20 13 10 5 13 24 31 34 35 39 43 48 51 54 58 63 68 71 72 70 66 69 68 70 74 77 71 68 69 63 59 58 57 57 56 65
72 66 55 43 32 31 26 15 9 7 10 16 22 33 34 31 34 39 46 55 62 66 63 63 63 62 60 63 70 73 73 67 61 56 57 61 62 61 58 54 56 55 56
66 55 42 31 26 29 16 12 10 9 10 14 25 32 32 43 47 50 64 69 70 73 67 65 63 61 64 66 65 64 60 60 53 52 54 50 46 41 48 53 55 54 54
42 34 23 10 22 18 16 13 11 9 12 21 33 41 40 44 52 58 72 79 78 75 68 63 63 63 61 61 61 61 55 49 40 39 41 41 36 47 43 45 51 51 45
39 25 4 6 12 10 9 9 9 11 21 32 44 50 46 50 58 63 73 80 77 68 63 58 57 56 55 52 58 59 59 34 39 26 49 52 37 36 40 43 47 44 40
34 23 7 7 5 8 9 11 11 22 33 41 52 55 51 53 59 64 75 82 72 65 57 50 48 50 48 45 46 48 32 45 22 55 38 30 33 42 44 43 35 33 36
25 11 8 1 11 12 9 13 24 29 37 52 57 50 49 51 57 66 74 70 62 54 48 44 40 38 41 40 35 31 23 16 56 44 38 33 39 44 41 39 30 29 30
7 13 17 10 16 12 17 25 33 43 50 47 45 46 45 50 61 69 66 63 58 49 46 40 36 39 37 40 38 29 34 38 39 34 28 45 42 40 36 34 33 28 23
7 18 19 19 15 19 23 28 36 41 42 43 42 43 49 56 62 66 62 60 50 47 44 40 41 39 37 37 33 33 37 35 33 48 42 64 63 45 33 34 22 20 6
19 33 22 18 18 22 24 32 39 40 40 40 43 49 54 56 60 61 55 45 43 43 41 42 40 36 35 32 31 29 28 31 37 37 43 60 46 47 38 21 19 16 2
Wind_Direction_500mb
147 125 123 131 136 132 130 128 125 124 122 120 116 113 110 109 105 101 97 95 93 91 89 80 52 317 302 295 290 290 299 309 320 326 325 324 319 306 281 249 255 311 315
142 134 136 140 139 132 126 120 115 112 109 104 101 98 95 92 89 87 84 80 74 66 59 46 15 345 326 315 308 303 300 298 298 298 298 304 298 294 274 269 279 285 284
143 135 138 138 131 124 119 115 110 105 100 96 92 90 89 88 86 81 74 67 60 50 37 25 13 357 339 325 316 309 302 296 291 287 281 277 277 286 247 256 271 275 275
143 137 136 133 127 120 116 112 107 103 98 94 91 89 86 85 80 75 69 59 48 38 27 16 6 356 348 340 329 321 313 306 298 291 283 275 270 265 256 250 259 266 258
141 138 134 129 122 117 111 108 107 103 99 95 91 88 85 81 75 68 64 52 42 30 19 10 360 349 337 327 320 315 312 309 306 301 296 288 277 267 260 262 265 272 247
136 136 130 125 121 117 114 111 108 105 103 99 95 90 89 81 72 69 63 43 31 27 25 14 359 346 336 325 312 301 294 294 295 295 294 289 282 277 269 262 258 263 249
137 136 129 127 124 120 118 118 112 103 100 96 85 80 77 70 60 49 37 25 15 5 357 348 340 335 328 324 319 313 306 299 291 287 287 289 287 282 276 267 261 258 252
137 134 130 124 122 120 118 116 108 100 96 89 77 74 63 48 39 31 16 6 359 350 342 336 334 331 325 321 319 314 311 307 303 300 297 289 283 283 281 278 269 259 257
138 131 124 123 120 118 117 118 110 102 92 81 77 75 56 45 37 27 14 4 356 346 338 331 324 319 316 315 313 311 310 310 308 305 302 300 294 283 281 274 275 271 260
135 130 128 125 125 126 126 123 116 98 82 72 68 56 45 43 33 19 8 1 352 347 342 337 332 326 318 309 303 301 300 302 301 301 297 302 298 290 285 277 267 268 270
140 137 134 134 135 136 133 126 107 82 65 62 52 41 39 25 15 9 4 0 359 354 347 340 334 326 317 313 312 312 303 298 298 298 297 294 293 295 299 292 275 270 263
150 143 141 142 143 141 131 109 81 44 40 45 37 29 20 9 5 2 360 353 346 344 342 340 336 329 320 318 317 314 313 311 304 298 293 289 285 285 286 293 288 273 270
160 156 156 156 153 146 137 124 68 27 23 15 17 12 4 354 354 352 348 343 342 339 338 337 332 331 328 324 320 316 313 311 306 302 297 295 288 278 277 277 282 281 274
169 168 168 172 175 164 162 165 176 194 261 11 11 358 334 338 342 341 340 341 341 336 332 330 329 328 327 324 321 318 315 313 307 300 298 295 291 283 276 271 271 273 274
181 182 184 184 181 177 185 187 188 200 203 12 326 321 333 336 335 335 334 331 328 324 319 317 317 318 319 318 316 315 313 312 311 306 301 297 292 289 283 274 267 266 268
179 179 176 175 179 179 180 184 191 201 225 306 325 334 336 335 332 330 322 318 317 316 311 308 309 309 309 310 312 315 312 308 308 311 306 298 296 291 288 284 277 268 264
176 175 173 172 172 175 186 185 181 209 283 328 340 338 333 330 330 324 323 325 326 321 311 305 303 305 308 313 316 312 307 304 304 305 305 299 293 291 292 290 288 275 267
174 171 167 173 187 218 209 204 230 249 315 330 334 341 337 347 344 341 342 337 333 333 325 318 315 312 310 311 312 312 313 313 308 305 306 309 298 293 293 287 288 284 272
175 175 181 193 223 221 215 230 239 275 299 308 332 337 337 337 338 337 341 341 335 331 326 318 313 311 311 310 312 313 314 312 311 305 303 303 302 302 299 293 290 287 285
168 169 161 202 209 208 220 223 233 260 292 315 325 331 333 336 338 337 340 339 333 329 327 321 315 314 313 315 313 315 315 315 312 310 307 304 300 309 299 295 297 290 281
173 178 195 216 195 243 244 241 248 284 308 319 323 324 329 330 336 334 336 335 331 326 325 323 321 320 317 318 320 327 327 330 334 319 318 310 310 308 306 303 304 293 277
178 187 239 193 270 236 236 258 286 312 312 313 319 321 324 323 334 332 332 331 326 321 321 321 323 323 324 331 329 330 326 328 326 316 331 333 330 317 316 308 309 298 283
186 217 222 200 242 245 266 299 308 306 308 313 310 312 315 321 325 324 327 323 319 318 319 321 321 324 326 325 328 323 323 318 328 329 332 332 322 326 317 314 314 318 297
234 284 215 235 249 283 310 312 322 316 309 306 303 305 311 318 320 326 324 318 317 318 319 319 318 320 320 322 325 323 316 319 317 314 329 320 324 331 327 330 341 321 307
318 271 279 259 287 309 318 314 307 299 294 291 295 302 308 312 319 322 316 313 315 318 319 318 318 319 314 311 317 318 317 322 326 324 320 316 317 331 326 319 304 357 329
265 264 245 271 273 268 282 289 284 278 278 283 291 301 311 318 324 317 313 314 317 324 324 319 322 321 319 311 303 303 309 326 328 329 318 313 322 324 340 327 328 298 43
Wind_Speed_850mb
27 25 22 18 21 24 25 26 27 28 26 26 25 24 23 21 19 18 17 15 12 10 7 4 2 2 4 5 6 6 9 11 12 12 10 9 9 7 5 3 2 5 8
33 31 26 23 23 27 29 27 28 28 28 28 29 28 26 24 22 22 20 18 16 13 10 8 7 8 10 12 13 14 15 15 14 13 12 12 11 11 11 10 9 9 13
32 33 29 25 25 28 31 31 31 31 32 32 33 32 31 30 28 27 26 24 22 19 18 16 14 12 13 15 17 19 20 21 21 20 19 18 17 15 15 14 17 21 19
33 31 30 28 29 29 31 33 33 33 33 32 32 31 30 29 26 26 25 24 22 20 18 18 18 19 19 20 20 21 22 24 25 26 26 25 26 24 23 26 25 30 30
37 32 30 29 30 31 31 31 32 32 31 29 29 28 27 26 24 25 26 24 21 20 20 21 21 20 21 21 23 25 27 27 28 27 26 27 30 32 32 36 37 32 35
37 32 30 28 29 30 30 29 28 28 27 27 26 26 25 23 21 21 16 17 20 20 19 17 17 18 19 21 22 25 28 30 33 33 32 30 29 31 36 39 42 36 32
38 34 32 28 27 29 29 28 28 28 27 25 25 26 22 24 24 19 20 20 21 22 22 25 26 26 27 28 30 32 33 33 35 36 37 39 36 33 34 38 42 42 39
32 33 32 30 28 32 34 32 34 33 30 25 24 24 23 22 22 20 23 26 28 31 32 33 34 32 31 32 32 33 33 35 38 38 39 41 40 40 38 39 42 47 47
35 34 33 34 36 39 39 34 32 29 25 23 23 21 19 19 21 24 27 30 32 33 35 36 37 39 39 38 38 37 37 35 34 35 37 39 36 37 39 41 43 49 53
44 43 43 43 41 36 34 30 26 24 24 23 21 20 19 20 23 25 28 31 33 34 37 40 40 42 42 42 45 48 47 44 44 42 40 37 35 36 40 43 41 42 54
49 44 42 39 36 32 25 21 17 15 18 17 17 19 19 19 25 31 35 37 37 37 39 41 42 45 47 47 45 44 45 48 48 47 47 44 44 42 40 42 45 46 50
54 48 42 39 35 28 21 15 11 9 11 14 19 23 26 27 31 36 39 42 44 44 47 48 49 51 51 53 52 50 48 46 47 50 52 51 50 50 50 47 44 48 49
55 50 45 41 34 25 20 12 5 7 9 14 20 27 30 31 36 42 44 48 51 54 56 58 58 56 53 53 54 54 55 56 53 50 50 51 52 57 59 58 53 49 49
57 53 52 44 34 28 19 12 7 5 2 8 16 23 25 32 39 42 48 54 56 58 65 66 67 69 67 62 62 65 69 71 64 61 59 54 53 54 59 65 65 60 58
60 58 56 48 43 34 27 22 17 12 4 4 8 18 29 36 42 46 52 51 49 55 53 55 59 64 70 74 76 78 78 69 62 62 63 59 57 54 56 62 70 72 70
65 63 58 51 45 39 34 26 19 15 6 8 17 28 38 42 44 49 46 45 53 61 58 57 60 69 77 80 79 69 59 55 60 71 67 62 59 55 58 60 62 67 78
70 69 61 53 44 35 25 20 13 10 5 13 24 31 34 35 39 43 48 51 54 58 63 68 71 72 70 66 69 68 70 74 77 71 68 69 63 59 58 57 57 56 65
72 66 55 43 32 31 26 15 9 7 10 16 22 33 34 31 34 39 46 55 62 66 63 63 63 62 60 63 70 73 73 67 61 56 57 61 62 61 58 54 56 55 56
66 55 42 31 26 29 16 12 10 9 10 14 25 32 32 43 47 50 64 69 70 73 67 65 63 61 64 66 65 64 60 60 53 52 54 50 46 41 48 53 55 54 54
42 34 23 10 22 18 16 13 11 9 12 21 33 41 40 44 52 58 72 79 78 75 68 63 63 63 61 61 61 61 55 49 40 39 41 41 36 47 43 45 51 51 45
39 25 4 6 12 10 9 9 9 11 21 32 44 50 46 50 58 63 73 80 77 68 63 58 57 56 55 52 58 59 59 34 39 26 49 52 37 36 40 43 47 44 40
34 23 7 7 5 8 9 11 11 22 33 41 52 55 51 53 59 64 75 82 72 65 57 50 48 50 48 45 46 48 32 45 22 55 38 30 33 42 44 43 35 33 36
25 11 8 1 11 12 9 13 24 29 37 52 57 50 49 51 57 66 74 70 62 54 48 44 40 38 41 40 35 31 23 16 56 44 38 33 39 44 41 39 30 29 30
7 13 17 10 16 12 17 25 33 43 50 47 45 46 45 50 61 69 66 63 58 49 46 40 36 39 37 40 38 29 34 38 39 34 28 45 42 40 36 34 33 28 23
7 18 19 19 15 19 23 28 36 41 42 43 42 43 49 56 62 66 62 60 50 47 44 40 41 39 37 37 33 33 37 35 33 48 42 64 63 45 33 34 22 20 6
19 33 22 18 18 22 24 32 39 40 40 40 43 49 54 56 60 61 55 45 43 43 41 42 40 36 35 32 31 29 28 31 37 37 43 60 46 47 38 21 19 16 2
Wind_Direction_850mb
147 125 123 131 136 132 130 128 125 124 122 120 116 113 110 109 105 101 97 95 93 91 89 80 52 317 302 295 290 290 299 309 320 326 325 324 319 306 281 249 255 311 315
142 134 136 140 139 132 126 120 115 112 109 104 101 98 95 92 89 87 84 80 74 66 59 46 15 345 326 315 308 303 300 298 298 298 298 304 298 294 274 269 279 285 284
143 135 138 138 131 124 119 115 110 105 100 96 92 90 89 88 86 81 74 67 60 50 37 25 13 357 339 325 316 309 302 296 291 287 281 277 277 286 247 256 271 275 275
143 137 136 133 127 120 116 112 107 103 98 94 91 89 86 85 80 75 69 59 48 38 27 16 6 356 348 340 329 321 313 306 298 291 283 275 270 265 256 250 259 266 258
141 138 134 129 122 117 111 108 107 103 99 95 91 88 85 81 75 68 64 52 42 30 19 10 360 349 337 327 320 315 312 309 306 301 296 288 277 267 260 262 265 272 247
136 136 130 125 121 117 114 111 108 105 103 99 95 90 89 81 72 69 63 43 31 27 25 14 359 346 336 325 312 301 294 294 295 295 294 289 282 277 269 262 258 263 249
137 136 129 127 124 120 118 118 112 103 100 96 85 80 77 70 60 49 37 25 15 5 357 348 340 335 328 324 319 313 306 299 291 287 287 289 287 282 276 267 261 258 252
137 134 130 124 122 120 118 116 108 100 96 89 77 74 63 48 39 31 16 6 359 350 342 336 334 331 325 321 319 314 311 307 303 300 297 289 283 283 281 278 269 259 257
138 131 124 123 120 118 117 118 110 102 92 81 77 75 56 45 37 27 14 4 356 346 338 331 324 319 316 315 313 311 310 310 308 305 302 300 294 283 281 274 275 271 260
135 130 128 125 125 126 126 123 116 98 82 72 68 56 45 43 33 19 8 1 352 347 342 337 332 326 318 309 303 301 300 302 301 301 297 302 298 290 285 277 267 268 270
140 137 134 134 135 136 133 126 107 82 65 62 52 41 39 25 15 9 4 0 359 354 347 340 334 326 317 313 312 312 303 298 298 298 297 294 293 295 299 292 275 270 263
150 143 141 142 143 141 131 109 81 44 40 45 37 29 20 9 5 2 360 353 346 344 342 340 336 329 320 318 317 314 313 311 304 298 293 289 285 285 286 293 288 273 270
160 156 156 156 153 146 137 124 68 27 23 15 17 12 4 354 354 352 348 343 342 339 338 337 332 331 328 324 320 316 313 311 306 302 297 295 288 278 277 277 282 281 274
169 168 168 172 175 164 162 165 176 194 261 11 11 358 334 338 342 341 340 341 341 336 332 330 329 328 327 324 321 318 315 313 307 300 298 295 291 283 276 271 271 273 274
181 182 184 184 181 177 185 187 188 200 203 12 326 321 333 336 335 335 334 331 328 324 319 317 317 318 319 318 316 315 313 312 311 306 301 297 292 289 283 274 267 266 268
179 179 176 175 179 179 180 184 191 201 225 306 325 334 336 335 332 330 322 318 317 316 311 308 309 309 309 310 312 315 312 308 308 311 306 298 296 291 288 284 277 268 264
176 175 173 172 172 175 186 185 181 209 283 328 340 338 333 330 330 324 323 325 326 321 311 305 303 305 308 313 316 312 307 304 304 305 305 299 293 291 292 290 288 275 267
174 171 167 173 187 218 209 204 230 249 315 330 334 341 337 347 344 341 342 337 333 333 325 318 315 312 310 311 312 312 313 313 308 305 306 309 298 293 293 287 288 284 272
175 175 181 193 223 221 215 230 239 275 299 308 332 337 337 337 338 337 341 341 335 331 326 318 313 311 311 310 312 313 314 312 311 305 303 303 302 302 299 293 290 287 285
168 169 161 202 209 208 220 223 233 260 292 315 325 331 333 336 338 337 340 339 333 329 327 321 315 314 313 315 313 315 315 315 312 310 307 304 300 309 299 295 297 290 281
173 178 195 216 195 243 244 241 248 284 308 319 323 324 329 330 336 334 336 335 331 326 325 323 321 320 317 318 320 327 327 330 334 319 318 310 310 308 306 303 304 293 277
178 187 239 193 270 236 236 258 286 312 312 313 319 321 324 323 334 332 332 331 326 321 321 321 323 323 324 331 329 330 326 328 326 316 331 333 330 317 316 308 309 298 283
186 217 222 200 242 245 266 299 308 306 308 313 310 312 315 321 325 324 327 323 319 318 319 321 321 324 326 325 328 323 323 318 328 329 332 332 322 326 317 314 314 318 297
234 284 215 235 249 283 310 312 322 316 309 306 303 305 311 318 320 326 324 318 317 318 319 319 318 320 320 322 325 323 316 319 317 314 329 320 324 331 327 330 341 321 307
318 271 279 259 287 309 318 314 307 299 294 291 295 302 308 312 319 322 316 313 315 318 319 318 318 319 314 311 317 318 317 322 326 324 320 316 317 331 326 319 304 357 329
265 264 245 271 273 268 282 289 284 278 278 283 291 301 311 318 324 317 313 314 317 324 324 319 322 321 319 311 303 303 309 326 328 329 318 313 322 324 340 327 328 298 43